FENGYUN 1C DEB

Satellite information

Favourite Embed

Satellite Type and Status

DEBRISIN ORBIT

Key statistics

Satellite FENGYUN 1C DEB at a glance.

Uptime

9715

Days in orbit

Revolutions

≈ 13.9

Per day

Orbit

SSO

Sun Synchronous Orbit

Inclination

98.8

Latest

Satellite identification and parameters

Extended collection of information and parameters for FENGYUN 1C DEB.

Object identification

Identified? True

Debris? True

Object name: FENGYUN 1C DEB

International designator: 1999-025CTV

Object number (NORAD): 32175

Object ID (CCSDS): 32175

Country: PEOPLES REPUBLIC OF CHINA (PRC)

Current information (Y/N): Y

RCS size: SMALL

Orbital parameters

Period: 103.242 minutes

Inclination: 98.824 deg

SMA: 7290.055 km

Apoapsis: 1023.017 km

Periapsis: 800.823 km

RAAN: 333.8565 deg

Eccentricy: 0.01523951

Argument of periapsis: 327.1838 deg

Mean anomaly: 31.993 deg

Mean motion: 13.94782759 rev/day

Mean motion (dot): 0.00006217 rev/day2

B* drag term: 0.0042359746 1/REarth

Two-line elements (TLE)

Creation date: Dec. 11, 2025, 10:54 a.m.

Reference frame: TEME

Reference center: EARTH

Epoch: Dec. 11, 2025, 5:26 a.m. UTC

TLE line 0: 0 FENGYUN 1C DEB

TLE line 1: 1 32175U 99025CTV 25345.22679666 .00006217 00000-0 42360-2 0 9999

TLE line 2: 2 32175 98.8240 333.8565 0152395 327.1838 31.9930 13.94782759598193

Live tracking on map

Real-time ground track for satellite FENGYUN 1C DEB.

In-orbit conjunctions

A list of the most updated potential collisions computed for object FENGYUN 1C DEB.

Target Orbit TCA Probability of collision Miss distance Type
OSCAR 3 LEO 2025-04-03 09:22:28 0.0001663559 753.0 (m) PAYLOAD
SL-14 DEB LEO 2024-12-12 00:34:16 0.0001704249 47.0 (m) DEBRIS
METEOR 1-17 DEB LEO 2024-11-14 02:45:20 0.0002887499 477.0 (m) DEBRIS

Associated space launch

Chinese polar orbiting meteorological satellite

FENGYUN 1C DEB was lifted into orbit during the mission ‘Long March 4B | Feng Yun 1C’, on board a Long March 4B space rocket.

The launch took place on May 10, 1999, 1:33 a.m. from Launch Complex 7.

For more information about the launch, click the button.

Launch to space Long March 4B | Feng Yun 1C
Long March 4B | Feng Yun 1C

Agency: N/A

Status: Launch Successful

Launch date: May 10, 1999, 1:33 a.m. UTC

Rocket: Long March 4B

Launch pad: Launch Complex 7

Location: Taiyuan Satellite Launch Center, People's Republic of China

...

Latest news about this satellite

There are no fresh news available about this satellite. Check back as we update our databases every day.


Newsletter sign-up

Weekly statistics, charts and insights to help you stay on top of the space industry.